Погода в Любохинах

Украина / Волынская область     51°28′48″N   24°12′26″E
темп.,
°C
ветер,
м/с
пор.,
м/с
влажн.,
%
обл.,
%
осадки,
мм/ч
давл.,
гПа
погр.,
м
12 мая, ср
ср1200:00+12юв513826 0.0 1015267
03:00+11юв4139034 0.0 1015281
06:00+10вюв412885 0.0 1014235
09:00+16вюв711770 0.0 1014545
12:00+18вюв89628 0.0 10131188
15:00+18вюв810460 0.0 10131535
18:00+17юв710570 0.0 10121614
21:00+11вюв713660 0.0 1012592
13 мая, чт
чт1300:00+8вюв513770 0.0 1012395
03:00+6в410884 0.0 1010209
06:00+5вюв4119135 0.0 1008229
09:00+11вюв6106783 0.0 1007764
12:00+15юв795518 0.0 10051393
15:00+14юв6970100 0.0 10041005
18:00+11юв61084100 0.1 1003637
21:00+11вюв51093100 1.1 1002473
14 мая, пт
пт1400:00+12юв4897100 0.0 1002304
03:00+11ююв4994100 0.1 1002416
06:00+11ю61195100 0.1 1002537
09:00+11ююз51094100 1.9 1003475
12:00+14юз5782100 0.4 1004726
15:00+14юз687791 0.7 1006811
18:00+13юз587784 0.0 1007921
21:00+10юз4788100 0.0 1008268
15 мая, сб
сб1500:00+10зюз4882100 0.0 1008557
03:00+7юз412948 0.0 1009335
06:00+10зюз4118297 0.0 1009725
09:00+11зюз5978100 0.0 1009828
12:00+12з577598 0.0 1011736
15:00+18з575212 0.0 10101884
18:00+18з455443 0.0 10101630
21:00+13зюз227990 0.0 101115
16 мая, вс
вс1600:00+10сз008589 0.0 101110
03:00+9всв228998 0.0 101217
06:00+9в339187 0.0 101237
09:00+14в4675100 0.0 1012342
12:00+19вюв5759100 0.0 10111023
15:00+18юв71071100 2.1 1010812
18:00+15в3687100 2.1 1009151
21:00+14вюв31094100 3.8 1009236